| time (UTC) | temp C | wind direction | speed KPH | gust KPH | rain 1hr cm | rain 24hr cm | rain mn cm | humidity % | barometer mb |
| 20260506024453 | 16 | 14 | 1.6 | 8.0 | 0.00 | 0.00 | 0.00 | 59 | 1012.0 |
| 20260506023532 | 16 | 2 | 3.2 | 6.4 | 0.00 | 0.00 | 0.00 | 59 | 1011.8 |
| 20260506022632 | 16 | 358 | 3.2 | 8.0 | 0.00 | 0.00 | 0.00 | 58 | 1012.0 |
| 20260506021732 | 16 | 16 | 3.2 | 11.3 | 0.00 | 0.00 | 0.00 | 58 | 1011.8 |
| 20260506020853 | 17 | 4 | 4.8 | 11.3 | 0.00 | 0.00 | 0.00 | 57 | 1011.9 |
| 20260506015932 | 17 | 356 | 3.2 | 12.9 | 0.00 | 0.00 | 0.00 | 57 | 1012.0 |
| 20260506015032 | 17 | 343 | 4.8 | 9.7 | 0.00 | 0.00 | 0.00 | 56 | 1011.9 |
| 20260506014132 | 17 | 342 | 4.8 | 14.5 | 0.00 | 0.00 | 0.00 | 56 | 1012.0 |
| 20260506013232 | 17 | 346 | 4.8 | 12.9 | 0.00 | 0.00 | 0.00 | 55 | 1012.1 |
| 20260506012332 | 17 | 357 | 4.8 | 11.3 | 0.00 | 0.00 | 0.00 | 55 | 1012.1 |
| 20260506011432 | 17 | 351 | 4.8 | 12.9 | 0.00 | 0.00 | 0.00 | 54 | 1012.2 |
| 20260506010532 | 17 | 10 | 6.4 | 12.9 | 0.00 | 0.00 | 0.00 | 54 | 1012.4 |
| 20260506005632 | 17 | 6 | 6.4 | 14.5 | 0.00 | 0.00 | 0.00 | 53 | 1012.5 |
| 20260506004732 | 17 | 4 | 6.4 | 17.7 | 0.00 | 0.00 | 0.00 | 53 | 1012.4 |
| 20260506003832 | 17 | 359 | 4.8 | 17.7 | 0.00 | 0.00 | 0.00 | 52 | 1012.4 |
| 20260506002933 | 17 | 3 | 4.8 | 14.5 | 0.00 | 0.00 | 0.00 | 52 | 1012.5 |
| 20260506002032 | 17 | 2 | 4.8 | 14.5 | 0.00 | 0.00 | 0.00 | 51 | 1012.7 |
| 20260506001132 | 17 | 12 | 4.8 | 14.5 | 0.00 | 0.00 | 0.00 | 50 | 1012.7 |
| 20260506000232 | 18 | 3 | 4.8 | 11.3 | 0.00 | 0.00 | 0.00 | 50 | 1012.7 |
| 20260505235332 | 18 | 357 | 3.2 | 8.0 | 0.00 | 0.00 | 0.00 | 50 | 1012.7 |
| 20260505234432 | 18 | 347 | 4.8 | 8.0 | 0.00 | 0.00 | 0.00 | 50 | 1012.6 |
| 20260505233532 | 18 | 1 | 4.8 | 11.3 | 0.00 | 0.00 | 0.00 | 50 | 1012.7 |
| 20260505232632 | 18 | 30 | 4.8 | 9.7 | 0.00 | 0.00 | 0.00 | 49 | 1012.7 |
| 20260505231753 | 18 | 356 | 4.8 | 9.7 | 0.00 | 0.00 | 0.00 | 48 | 1012.7 |
| 20260505230853 | 18 | 11 | 4.8 | 11.3 | 0.00 | 0.00 | 0.00 | 48 | 1012.8 |
| 20260505225932 | 18 | 359 | 4.8 | 14.5 | 0.00 | 0.00 | 0.00 | 47 | 1012.8 |
| 20260505225053 | 18 | 349 | 6.4 | 12.9 | 0.00 | 0.00 | 0.00 | 47 | 1012.7 |
| 20260505224132 | 19 | 345 | 4.8 | 14.5 | 0.00 | 0.00 | 0.00 | 46 | 1012.7 |
| 20260505223253 | 19 | 337 | 4.8 | 12.9 | 0.00 | 0.00 | 0.00 | 46 | 1012.8 |
| 20260505222332 | 19 | 334 | 4.8 | 12.9 | 0.00 | 0.00 | 0.00 | 46 | 1012.8 |
| 20260505221453 | 19 | 340 | 4.8 | 14.5 | 0.00 | 0.00 | 0.00 | 45 | 1012.8 |
| 20260505220532 | 20 | 342 | 4.8 | 11.3 | 0.00 | 0.00 | 0.00 | 45 | 1012.8 |
| 20260505215632 | 20 | 338 | 6.4 | 14.5 | 0.00 | 0.00 | 0.00 | 45 | 1012.8 |
| 20260505214753 | 20 | 337 | 6.4 | 14.5 | 0.00 | 0.00 | 0.00 | 45 | 1012.8 |
| 20260505213852 | 20 | 331 | 4.8 | 14.5 | 0.00 | 0.00 | 0.00 | 45 | 1012.8 |
| 20260505212931 | 20 | 326 | 3.2 | 11.3 | 0.00 | 0.00 | 0.00 | 44 | 1012.8 |
| 20260505212031 | 20 | 334 | 4.8 | 9.7 | 0.00 | 0.00 | 0.00 | 44 | 1012.8 |
| 20260505211131 | 20 | 339 | 4.8 | 12.9 | 0.00 | 0.00 | 0.00 | 44 | 1012.8 |
| 20260505210231 | 20 | 340 | 3.2 | 9.7 | 0.00 | 0.00 | 0.00 | 44 | 1012.7 |
| 20260505205353 | 21 | 348 | 6.4 | 12.9 | 0.00 | 0.00 | 0.00 | 43 | 1012.7 |
| 20260505204432 | 21 | 342 | 6.4 | 16.1 | 0.00 | 0.00 | 0.00 | 43 | 1012.6 |
| 20260505203552 | 21 | 344 | 6.4 | 17.7 | 0.00 | 0.00 | 0.00 | 42 | 1012.6 |
| 20260505202652 | 21 | 337 | 6.4 | 17.7 | 0.00 | 0.00 | 0.00 | 42 | 1012.5 |
| 20260505201732 | 21 | 343 | 6.4 | 16.1 | 0.00 | 0.00 | 0.00 | 41 | 1012.3 |
| 20260505200853 | 21 | 340 | 8.0 | 19.3 | 0.00 | 0.00 | 0.00 | 41 | 1012.2 |
| 20260505195931 | 22 | 332 | 4.8 | 19.3 | 0.00 | 0.00 | 0.00 | 40 | 1012.1 |
| 20260505195031 | 22 | 337 | 6.4 | 14.5 | 0.00 | 0.00 | 0.00 | 40 | 1012.0 |
| 20260505194131 | 22 | 339 | 8.0 | 14.5 | 0.00 | 0.00 | 0.00 | 40 | 1011.8 |
| 20260505193232 | 22 | 350 | 6.4 | 17.7 | 0.00 | 0.00 | 0.00 | 39 | 1011.8 |
| 20260505192331 | 22 | 352 | 6.4 | 17.7 | 0.00 | 0.00 | 0.00 | 38 | 1011.8 |
| 20260505191431 | 23 | 337 | 8.0 | 19.3 | 0.00 | 0.00 | 0.00 | 38 | 1011.7 |
| 20260505190552 | 23 | 332 | 6.4 | 17.7 | 0.00 | 0.00 | 0.00 | 36 | 1011.6 |
| 20260505185632 | 23 | 329 | 3.2 | 14.5 | 0.00 | 0.00 | 0.00 | 34 | 1011.4 |
| 20260505184752 | 24 | 336 | 4.8 | 12.9 | 0.00 | 0.00 | 0.00 | 34 | 1011.4 |
| 20260505183831 | 24 | 346 | 4.8 | 12.9 | 0.00 | 0.00 | 0.00 | 34 | 1011.4 |
| 20260505182931 | 24 | 354 | 6.4 | 14.5 | 0.00 | 0.00 | 0.00 | 34 | 1011.3 |
| 20260505182052 | 24 | 351 | 6.4 | 17.7 | 0.00 | 0.00 | 0.00 | 33 | 1011.3 |
| 20260505181131 | 24 | 348 | 4.8 | 17.7 | 0.00 | 0.00 | 0.00 | 33 | 1011.2 |
| 20260505180231 | 24 | 8 | 6.4 | 14.5 | 0.00 | 0.00 | 0.00 | 33 | 1011.4 |
| 20260505175331 | 25 | 333 | 6.4 | 16.1 | 0.00 | 0.00 | 0.00 | 33 | 1011.5 |
| 20260505174431 | 25 | 346 | 6.4 | 14.5 | 0.00 | 0.00 | 0.00 | 33 | 1011.4 |
| 20260505173531 | 25 | 349 | 4.8 | 17.7 | 0.00 | 0.00 | 0.00 | 33 | 1011.4 |
| 20260505172631 | 25 | 330 | 6.4 | 14.5 | 0.00 | 0.00 | 0.00 | 31 | 1011.5 |
| 20260505171731 | 25 | 359 | 6.4 | 16.1 | 0.00 | 0.00 | 0.00 | 31 | 1011.6 |
| 20260505170852 | 25 | 347 | 6.4 | 16.1 | 0.00 | 0.00 | 0.00 | 32 | 1011.6 |
| 20260505165931 | 25 | 348 | 6.4 | 17.7 | 0.00 | 0.00 | 0.00 | 31 | 1011.7 |
| 20260505165031 | 25 | 351 | 4.8 | 16.1 | 0.00 | 0.00 | 0.00 | 32 | 1011.7 |
| 20260505164132 | 25 | 46 | 4.8 | 12.9 | 0.00 | 0.00 | 0.00 | 32 | 1011.6 |
| 20260505163231 | 25 | 34 | 8.0 | 16.1 | 0.00 | 0.00 | 0.00 | 31 | 1011.8 |
| 20260505162331 | 24 | 358 | 8.0 | 19.3 | 0.00 | 0.00 | 0.00 | 31 | 1011.8 |
| 20260505161431 | 25 | 322 | 3.2 | 19.3 | 0.00 | 0.00 | 0.00 | 31 | 1011.8 |
| 20260505160531 | 25 | 360 | 3.2 | 9.7 | 0.00 | 0.00 | 0.00 | 30 | 1011.7 |
| 20260505152952 | 25 | 289 | 4.8 | 12.9 | 0.00 | 0.00 | 0.00 | 31 | 1011.9 |
| 20260505152030 | 24 | 329 | 4.8 | 14.5 | 0.00 | 0.00 | 0.00 | 31 | 1012.0 |
| 20260505151130 | 24 | 265 | 3.2 | 14.5 | 0.00 | 0.00 | 0.00 | 31 | 1012.1 |
| 20260505150230 | 24 | 267 | 1.6 | 6.4 | 0.00 | 0.00 | 0.00 | 33 | 1012.2 |
| 20260505124731 | 22 | 250 | 3.2 | 11.3 | 0.00 | 0.00 | 0.00 | 39 | 1013.5 |
| 20260505123830 | 21 | 231 | 6.4 | 11.3 | 0.00 | 0.00 | 0.00 | 40 | 1013.6 |
| 20260505122930 | 21 | 246 | 4.8 | 16.1 | 0.00 | 0.00 | 0.00 | 40 | 1013.7 |
| 20260505122030 | 22 | 275 | 6.4 | 17.7 | 0.00 | 0.00 | 0.00 | 40 | 1013.9 |
| 20260505121130 | 21 | 8 | 8.0 | 17.7 | 0.00 | 0.00 | 0.00 | 41 | 1014.1 |
| 20260505120230 | 21 | 342 | 6.4 | 19.3 | 0.00 | 0.00 | 0.00 | 41 | 1014.3 |
| 20260505115330 | 21 | 277 | 4.8 | 19.3 | 0.00 | 0.00 | 0.00 | 41 | 1014.4 |
| 20260505114430 | 21 | 321 | 3.2 | 14.5 | 0.00 | 0.00 | 0.00 | 42 | 1014.5 |
| 20260505113530 | 21 | 261 | 3.2 | 12.9 | 0.00 | 0.00 | 0.00 | 43 | 1014.6 |
| 20260505112630 | 20 | 277 | 4.8 | 16.1 | 0.00 | 0.00 | 0.00 | 43 | 1014.8 |
| 20260505111730 | 20 | 298 | 6.4 | 17.7 | 0.00 | 0.00 | 0.00 | 44 | 1014.8 |
| 20260505110830 | 20 | 347 | 3.2 | 16.1 | 0.00 | 0.00 | 0.00 | 44 | 1015.0 |
| 20260505101429 | 19 | 15 | 3.2 | 14.5 | 0.00 | 0.00 | 0.00 | 46 | 1015.2 |
| 20260505100530 | 18 | 349 | 3.2 | 11.3 | 0.00 | 0.00 | 0.00 | 48 | 1015.3 |
| 20260505095629 | 18 | 307 | 1.6 | 8.0 | 0.00 | 0.00 | 0.00 | 49 | 1015.3 |
| 20260505094730 | 18 | 324 | 4.8 | 9.7 | 0.00 | 0.00 | 0.00 | 51 | 1015.4 |
| 20260505093851 | 17 | 335 | 4.8 | 14.5 | 0.00 | 0.00 | 0.00 | 51 | 1015.4 |
| 20260505092950 | 17 | 335 | 4.8 | 14.5 | 0.00 | 0.00 | 0.00 | 52 | 1015.3 |
| 20260505092029 | 17 | 313 | 3.2 | 9.7 | 0.00 | 0.00 | 0.00 | 53 | 1015.3 |
| 20260505091150 | 17 | 331 | 1.6 | 9.7 | 0.00 | 0.00 | 0.00 | 53 | 1015.4 |
| 20260505090229 | 17 | 11 | 3.2 | 6.4 | 0.00 | 0.00 | 0.00 | 54 | 1015.5 |
| 20260505085329 | 17 | 329 | 3.2 | 14.5 | 0.00 | 0.00 | 0.00 | 54 | 1015.3 |
| 20260505084429 | 17 | 5 | 1.6 | 6.4 | 0.00 | 0.00 | 0.00 | 56 | 1015.4 |
| 20260505083529 | 17 | 23 | 1.6 | 8.0 | 0.00 | 0.00 | 0.00 | 57 | 1015.4 |
| 20260505082629 | 16 | 356 | 1.6 | 6.4 | 0.00 | 0.00 | 0.00 | 58 | 1015.5 |
| 20260505081729 | 16 | 358 | 1.6 | 8.0 | 0.00 | 0.00 | 0.00 | 58 | 1015.6 |
| 20260505080829 | 16 | 312 | 1.6 | 6.4 | 0.00 | 0.00 | 0.00 | 59 | 1015.5 |
| 20260505075929 | 16 | 343 | 3.2 | 9.7 | 0.00 | 0.00 | 0.00 | 59 | 1015.7 |
| 20260505075029 | 15 | 347 | 3.2 | 12.9 | 0.00 | 0.00 | 0.00 | 60 | 1015.7 |
| 20260505074129 | 15 | 331 | 3.2 | 8.0 | 0.00 | 0.00 | 0.00 | 60 | 1015.6 |
| 20260505073229 | 15 | 360 | 3.2 | 8.0 | 0.00 | 0.00 | 0.00 | 61 | 1015.6 |
| 20260505072329 | 15 | 19 | 3.2 | 8.0 | 0.00 | 0.00 | 0.00 | 61 | 1015.6 |
| 20260505071430 | 15 | 355 | 4.8 | 9.7 | 0.00 | 0.00 | 0.00 | 61 | 1015.6 |
| 20260505070529 | 15 | 17 | 4.8 | 12.9 | 0.00 | 0.00 | 0.00 | 62 | 1015.5 |
| 20260505065629 | 15 | 344 | 3.2 | 9.7 | 0.00 | 0.00 | 0.00 | 62 | 1015.5 |
| 20260505064750 | 15 | 356 | 3.2 | 8.0 | 0.00 | 0.00 | 0.00 | 62 | 1015.5 |
| 20260505063829 | 15 | 351 | 3.2 | 8.0 | 0.00 | 0.00 | 0.00 | 62 | 1015.5 |
| 20260505062929 | 15 | 346 | 3.2 | 8.0 | 0.00 | 0.00 | 0.00 | 62 | 1015.4 |
| 20260505062029 | 15 | 347 | 1.6 | 6.4 | 0.00 | 0.00 | 0.00 | 62 | 1015.3 |
| 20260505061129 | 15 | 340 | 1.6 | 4.8 | 0.00 | 0.00 | 0.00 | 63 | 1015.3 |
| 20260505060251 | 15 | 342 | 1.6 | 8.0 | 0.00 | 0.00 | 0.00 | 64 | 1015.2 |
| 20260505055350 | 15 | 4 | 0.0 | 6.4 | 0.00 | 0.00 | 0.00 | 63 | 1015.1 |
| 20260505054450 | 15 | 17 | 1.6 | 4.8 | 0.00 | 0.00 | 0.00 | 64 | 1014.9 |
| 20260505053529 | 15 | 15 | 1.6 | 8.0 | 0.00 | 0.00 | 0.00 | 64 | 1014.8 |
| 20260505052629 | 15 | 356 | 3.2 | 8.0 | 0.00 | 0.00 | 0.00 | 64 | 1014.8 |
| 20260505051729 | 15 | 19 | 3.2 | 11.3 | 0.00 | 0.00 | 0.00 | 63 | 1014.8 |
| 20260505050829 | 15 | 12 | 3.2 | 12.9 | 0.00 | 0.00 | 0.00 | 63 | 1014.6 |
| 20260505041450 | 15 | 24 | 3.2 | 9.7 | 0.00 | 0.00 | 0.00 | 63 | 1014.6 |
| 20260505040529 | 15 | 33 | 3.2 | 11.3 | 0.00 | 0.00 | 0.00 | 63 | 1014.6 |
| 20260505035629 | 15 | 10 | 3.2 | 11.3 | 0.00 | 0.00 | 0.00 | 62 | 1014.6 |
| 20260505034749 | 15 | 349 | 4.8 | 14.5 | 0.00 | 0.00 | 0.00 | 62 | 1014.6 |
| 20260505033828 | 15 | 357 | 4.8 | 16.1 | 0.00 | 0.00 | 0.00 | 62 | 1014.6 |
| 20260505032928 | 16 | 5 | 3.2 | 12.9 | 0.00 | 0.00 | 0.00 | 63 | 1014.6 |
| 20260505032029 | 16 | 7 | 4.8 | 12.9 | 0.00 | 0.00 | 0.00 | 63 | 1014.6 |
| 20260505031129 | 16 | 7 | 4.8 | 12.9 | 0.00 | 0.00 | 0.00 | 62 | 1014.6 |
| 20260505030228 | 16 | 12 | 6.4 | 16.1 | 0.00 | 0.00 | 0.00 | 62 | 1014.6 |
| 20260505025328 | 16 | 6 | 4.8 | 14.5 | 0.00 | 0.00 | 0.00 | 62 | 1014.6 |